Flag for Germany Weather past 2 weeks in Ansbach, Bavaria, Germany

Now
63 °F

Broken clouds.


Feels Like: 63 °F
Forecast: 57 / 83 °F
Wind: 3 mph from West

Location: Ansbach / Katterbach

Current Time: Aug 1, 2015 at 2:31:46 PM

Latest Report: Aug 1, 2015 at 1:58 PM


Visibility: N/A

Pressure: 30.01 "Hg

Humidity: 68%

Dew point: 52 °F

Location of AnsbachLocation

Historic Weather in Ansbach — Graph

°F

Ansbach temperature yesterday

Maximum temperature yesterday: 72 °F (at 5:58 PM)
Minimum temperature yesterday: 45 °F (at 5:58 AM)
Average temperature yesterday: 60 °F

Past Weeks' High & Low Weather Summary

 TemperatureHumidityPressure
High94 °F (Jul 22, 2:58 PM)100% (Jul 22, 8:58 PM)30.13 "Hg (Jul 22, 8:58 PM)
Low45 °F (Jul 31, 5:58 AM)22% (Jul 17, 4:58 PM)29.67 "Hg (Jul 25, 2:58 AM)
Average68 °F65%29.94 "Hg
* Reported Jul 17 12:58 PM — Aug 1 12:58 PM, Ansbach, Weather by CustomWeather, © 2015

Note: Actual official high and low records may vary slightly from our data, if they occured in-between our weather recording intervals... More about our weather records

Advertising

Ansbach weather history for previous 24 hours

 ConditionsComfort  
Time TempWeatherWind HumidityBarometerVisibility
12:58 PM
Sat, Aug 1
61 °FScattered clouds.7 mph72%30.02 "HgN/A
11:58 AM61 °FLight rain. Scattered clouds.2 mph69%30.02 "HgN/A
11:02 AM61 °FDrizzle. Partly sunny.1 mph63%30.00 "HgN/A
10:58 AM60 °FPartly sunny.No wind64%30.01 "HgN/A
9:58 AM59 °FScattered clouds.1 mph65%29.98 "HgN/A
8:58 AM57 °FPassing clouds.5 mph63%29.97 "HgN/A
7:58 AM56 °FPassing clouds.5 mph66%29.96 "HgN/A
6:58 AM55 °FPassing clouds.7 mph67%29.95 "HgN/A
5:58 AM55 °FPassing clouds.5 mph67%29.95 "HgN/A
4:58 AM55 °FPassing clouds.7 mph67%29.95 "HgN/A
3:58 AM57 °FOvercast.8 mph63%29.95 "HgN/A
2:58 AM57 °FMostly cloudy.7 mph61%29.97 "HgN/A
1:58 AM58 °FPassing clouds.9 mph59%29.98 "HgN/A
12:58 AM59 °FPassing clouds.8 mph55%29.98 "HgN/A
11:58 PM
Fri, Jul 31
61 °FClear.8 mph52%29.98 "HgN/A
10:58 PM62 °FClear.7 mph48%30.01 "HgN/A
9:58 PM64 °FSunny.8 mph43%30.01 "HgN/A
8:58 PM66 °FSunny.7 mph40%29.99 "HgN/A
7:58 PM68 °FSunny.7 mph35%30.00 "HgN/A
6:58 PM71 °FSunny.6 mph32%30.02 "HgN/A
5:58 PM72 °FSunny.9 mph31%30.03 "HgN/A
4:58 PM70 °FSunny.6 mph35%30.04 "HgN/A
3:58 PM71 °FPassing clouds.7 mph34%30.05 "HgN/A
2:58 PM70 °FSunny.6 mph35%30.06 "HgN/A
Weather by CustomWeather, © 2015

See weather overviewHow to use our weather pages